Regional Weather Roundup
Issued by NWS

Home | Current Version | Previous Version | Text Only | Print | Product List | Glossary On
Versions: 1 2 3 4 5 6 7 8 9 10 11 12 13 14 15 16 17 18 19 20 21 22 23 24 25 26 27 28 29 30 31 32 33 34 35 36 37 38 39 40 41 42 43 44 45 46 47 48 49 50
000
ASUS44 KFWD 191103
RWRTX
NORTH TEXAS HOURLY WEATHER ROUNDUP
NATIONAL WEATHER SERVICE FORT WORTH TX
500 AM CST FRI DEC 19 2014

NOTE: "FAIR" INDICATES FEW OR NO CLOUDS BELOW 12,000 FEET WITH NO
SIGNIFICANT WEATHER AND/OR OBSTRUCTIONS TO VISIBILITY.

TXZ118-119-191200-
DALLAS/FORT WORTH METROPLEX

CITY           SKY/WX    TMP DP  RH WIND       PRES   REMARKS
DFW AIRPORT    LGT RAIN  46  43  89 NE7       30.17F FOG
DALLAS LOVE    CLOUDY    46  43  89 NW6       30.21R
FTW MEACHAM    RAIN      46  43  89 N7        30.16F FOG
DAL-EXECUTIVE  LGT RAIN  47  44  90 N10       30.17R
FTW-ALLIANCE   RAIN      44  43  96 N3        30.19R FOG
ARLINGTON      CLOUDY    47  42  83 N9        30.15F
GRAND PRAIRIE  CLOUDY    46  46 100 N7        30.20R
LANCASTER      DRIZZLE   46  43  90 NW12      30.20R WCI  40
$$

TXZ091>094-102>105-117-120-121-131>134-191200-
NORTH CENTRAL TEXAS

CITY           SKY/WX    TMP DP  RH WIND       PRES   REMARKS
SHRMAN/DENISON FOG       44  44 100 CALM      30.19R VSB 3/4
BRIDGEPORT     RAIN      44  44 100 CALM      30.21R
DECATUR        LGT RAIN  43  43 100 CALM      30.19R
DENTON         RAIN      45  43  93 S7        30.21R FOG
MCKINNEY       CLOUDY    45  43  93 NW6       30.19R
ROCKWALL       CLOUDY    45  44  96 N7        30.16S FOG
TERRELL        CLOUDY    48  44  86 N6        30.17R
WAXAHACHIE     DRIZZLE   45  45 100 NW15      30.18R WCI  38
CLEBURNE       CLOUDY    46  46 100 N13       30.14F FOG
GRANBURY       RAIN      46  44  92 N8        30.15F
$$

TXZ083>090-098>101-113>116-127>130-139>142-154-155-191200-
WESTERN NORTH TEXAS

CITY           SKY/WX    TMP DP  RH WIND       PRES   REMARKS
WICHITA FALLS  CLOUDY    43  41  93 E7        30.19R WCI  39
WF-KICKAPOO    DRIZZLE   44  44 100 E5        30.21R
VERNON         CLOUDY    43  38  81 NE3       30.20R
ABILENE        CLOUDY    42  41  96 N9        30.15S FOG     WCI  37
ABILENE-DYESS  MOCLDY    43  37  81 N9        30.14F WCI  37
BRECKENRIDGE   DRIZZLE   46  46  97 NE3       30.16S
MINERAL WELLS  CLOUDY    44  43  96 NE7       30.14F FOG
STEPHENVILLE   CLOUDY    45  42  91 NW6       30.17R
COMANCHE       CLOUDY    45  45 100 N10       30.13F WCI  39
COLEMAN        CLOUDY    46  46 100 NE7       30.12R FOG
BRADY          CLOUDY    45  45 100 NE5       30.11R
$$

TXZ143>147-156>162-174-175-191200-
CENTRAL TEXAS

CITY           SKY/WX    TMP DP  RH WIND       PRES   REMARKS
WACO           RAIN      46  45  96 N16       30.12R FOG     WCI  39
WACO-MCGREGOR  CLOUDY    46  39  76 N15       30.12R
CORSICANA      RAIN      47  45  93 N9        30.10F FOG
MEXIA          CLOUDY    47  46  97 N13       30.09F
HEARNE         RAIN      49  49  97 N5        30.07S
TEMPLE         CLOUDY    46  43  87 N16       30.09R WCI  40
KILLEEN        CLOUDY    46  46  98 N18       30.10R WCI  39
KILLEEN-SKYLRK CLOUDY    46  41  81 N10       30.08R
FORT HOOD      CLOUDY    47  46  98 N17       30.08R WCI  40
GATESVILLE     CLOUDY    46  46 100 N13       30.14S
HAMILTON       TSTM      46  46 100 NE7       30.13R
LAMPASAS       CLOUDY    45  44  96 N10       30.08F FOG     WCI  40
$$

TXZ095>097-106>112-122>126-135>138-148>153-164>167-191200-
EAST TEXAS

CITY           SKY/WX    TMP DP  RH WIND       PRES   REMARKS
PARIS          CLOUDY    45  43  93 NE7       30.17R
SULPHUR SPRNGS CLOUDY    46  45  97 NE10      30.14F FOG
MINEOLA        CLOUDY    46  46 100 CALM      30.13R FOG
TYLER          LGT RAIN  48  46  93 N9        30.11R FOG
LONGVIEW       CLOUDY    49  46  90 NE6       30.10F FOG
MARSHALL       CLOUDY    51  48  91 CALM      30.12F
PALESTINE      LGT RAIN  49  49  99 N9        30.09S
JACKSONVILLE   RAIN      49  48  99 N8        30.09S VSB 1
HENDERSON      LGT RAIN  49  48  99 NE7       30.11R
NACOGDOCHES    CLOUDY    48  46  93 E13       30.04F
LUFKIN         LGT RAIN  53  49  86 NE10G21   30.02F FOG
$$

SUPPLEMENTAL OBSERVATIONS (CENTRAL)

CITY           SKY/WX    TMP DP  RH WIND       PRES   REMARKS
$$

SUPPLEMENTAL OBSERVATIONS (WEST)

CITY           SKY/WX    TMP DP  RH WIND       PRES   REMARKS
$$

SUPPLEMENTAL OBSERVATIONS (EAST)

CITY           SKY/WX    TMP DP  RH WIND       PRES   REMARKS
$$

SUPPLEMENTAL OBSERVATIONS ARE A COLLECTION OF AUTOMATED INSTRUMENTS
THAT ARE MAINTAINED BY A VARIETY OF FEDERAL AND STATE AGENCIES.
CERTAIN ELEMENTS...SUCH AS HUMIDITY VALUES AND SUSTAINED WIND
SPEEDS...MAY BE APPROXIMATED.



USA.gov is the U.S. government's official web portal to all federal, state and local government web resources and services.